Battle Mountain, Nevada, United States (89820)
Lat: 40.64N, Lon: 116.93W
Wx Zone: NVZ036
Local Info
Past Weather Observations for Tuesday, May 19, 2015

NOTE: This archive is for the closest National Weather Service station to Battle Mountain. Information may differ from the station used for current weather conditions.

Click here for Long-term Archive

Time Weather Temperature Dewpoint Humidity Pressure Winds Precip Visibility
23:56
Partly Cloudy
45°F / 7°C 45°F / 7°C 100% 30.01 in
(1016 mb)
SE 5.8 mph
(SE 9 kph)
- 10SM
22:56
Mostly Cloudy
46°F / 8°C 45°F / 7°C 93% 30.01 in
(1016 mb)
Calm - 10SM
21:56
Partly Cloudy
46°F / 8°C 45°F / 7°C 93% 29.98 in
(1015 mb)
SE 5.8 mph
(SE 9 kph)
- 10SM
20:56
Mostly Cloudy
50°F / 10°C 45°F / 7°C 82% 29.98 in
(1015 mb)
S 6.9 mph
(S 11 kph)
- 10SM
19:56
Overcast
52°F / 11°C 46°F / 8°C 82% 29.98 in
(1015 mb)
SSE 6.9 mph
(SSE 11 kph)
- 10SM
18:56
Mostly Cloudy
52°F / 11°C 46°F / 8°C 82% 29.98 in
(1015 mb)
SW 3.5 mph
(SW 6 kph)
- 10SM
17:56
Mostly Cloudy
55°F / 13°C 46°F / 8°C 72% 29.98 in
(1015 mb)
W 5.8 mph
(W 9 kph)
- 10SM
16:56
Mostly Cloudy
55°F / 13°C 45°F / 7°C 67% 29.95 in
(1014 mb)
SSW 3.5 mph
(SSW 6 kph)
- 10SM
15:56
Partly Cloudy
57°F / 14°C 46°F / 8°C 67% 29.98 in
(1015 mb)
SSW 6.9 mph
(SSW 11 kph)
- 10SM
14:56
Clear
55°F / 13°C 46°F / 8°C 72% 29.98 in
(1015 mb)
Variable 4.6 mph
(Variable 7 kph)
- 10SM
13:56
Partly Cloudy
55°F / 13°C 46°F / 8°C 72% 30.01 in
(1016 mb)
SE 3.5 mph
(SE 6 kph)
- 10SM
12:56
Overcast
52°F / 11°C 46°F / 8°C 82% 30.01 in
(1016 mb)
SW 5.8 mph
(SW 9 kph)
0.02 in
(0.51 mm)
10SM
11:56
Overcast
Light Rain
54°F / 12°C 46°F / 8°C 77% 30.01 in
(1016 mb)
NW 3.5 mph
(NW 6 kph)
0.00 in
(0.00 mm)
9SM
10:56
Overcast
52°F / 11°C 48°F / 9°C 88% 30.01 in
(1016 mb)
S 5.8 mph
(S 9 kph)
0.02 in
(0.51 mm)
10SM
10:17
Overcast
Light Rain
52°F / 11°C 48°F / 9°C 88% 30.04 in
(1017 mb)
S 5.8 mph
(S 9 kph)
0.02 in
(0.51 mm)
6SM
09:56
Overcast
Light Rain
52°F / 11°C 48°F / 9°C 88% 30.04 in
(1017 mb)
SSE 4.6 mph
(SSE 7 kph)
0.04 in
(1.02 mm)
2SM
09:51
Overcast
Rain
50°F / 10°C 48°F / 9°C 94% 30.04 in
(1017 mb)
Calm 0.03 in
(0.76 mm)
1 1/2SM
09:44
Overcast
Rain
52°F / 11°C 48°F / 9°C 88% 30.01 in
(1016 mb)
S 4.6 mph
(S 7 kph)
0.01 in
(0.25 mm)
1 3/4SM
09:41
Overcast
Rain
52°F / 11°C 48°F / 9°C 88% 30.01 in
(1016 mb)
S 6.9 mph
(S 11 kph)
0.00 in
(0.00 mm)
2 1/2SM
09:29
Overcast
Light Rain
52°F / 11°C 48°F / 9°C 88% 30.01 in
(1016 mb)
S 6.9 mph
(S 11 kph)
0.00 in
(0.00 mm)
10SM
08:56
Overcast
52°F / 11°C 46°F / 8°C 82% 30.04 in
(1017 mb)
SSE 6.9 mph
(SSE 11 kph)
- 10SM
08:23
Overcast
50°F / 10°C 48°F / 9°C 94% 30.04 in
(1017 mb)
S 4.6 mph
(S 7 kph)
- 10SM
07:56
Overcast
50°F / 10°C 46°F / 8°C 88% 30.04 in
(1017 mb)
S 4.6 mph
(S 7 kph)
- 10SM
07:30
Overcast
50°F / 10°C 46°F / 8°C 88% 30.04 in
(1017 mb)
Calm - 10SM
06:56
Overcast
48°F / 9°C 46°F / 8°C 94% N/A S 3.5 mph
(S 6 kph)
0.00 in
(0.00 mm)
10SM
05:56
Overcast
Light Rain
48°F / 9°C 46°F / 8°C 94% N/A Calm 0.00 in
(0.00 mm)
8SM
05:04
Overcast
Light Rain
48°F / 9°C 46°F / 8°C 94% N/A Calm 0.00 in
(0.00 mm)
7SM
04:56
Overcast
Light Rain
48°F / 9°C 46°F / 8°C 94% N/A Calm 0.01 in
(0.25 mm)
5SM
03:56
Overcast
Light Rain
48°F / 9°C 46°F / 8°C 94% N/A Calm 0.01 in
(0.25 mm)
10SM
02:56
Overcast
Light Rain
46°F / 8°C 46°F / 8°C 100% N/A Calm 0.08 in
(2.03 mm)
5SM
02:35
Overcast
Light Rain
48°F / 9°C 46°F / 8°C 94% N/A Calm 0.07 in
(1.78 mm)
4SM
02:23
Overcast
Rain
46°F / 8°C 46°F / 8°C 100% N/A Calm 0.05 in
(1.27 mm)
2SM
01:56
Overcast
Light Rain
48°F / 9°C 46°F / 8°C 94% N/A N 3.5 mph
(N 6 kph)
0.02 in
(0.51 mm)
9SM
00:56
Overcast
Light Rain
48°F / 9°C 46°F / 8°C 94% N/A Calm 0.00 in
(0.00 mm)
9SM
Time Weather Temperature Dewpoint Humidity Pressure Winds Precip Visibility


Weather for websites

WeatherForYou.com, LLC is not responsible for any damages or problems caused by this service. Current weather conditions are obtained from the closest station including government and personal stations which may have varying degrees of accuracy. Weather forecasts are derived from the NOAA NDFD. Like all things, this site belongs to Jesus Christ... He just trusts us to maintain it. If you have any questions or comments email webmaster@weatherforyou.com

Copyright © 2015, WeatherForYou.com LLC. All rights reserved.